Volver al catálogo

COSMOS 1195

ActivoNavegaciónLEO
NORAD 11878·PAYLOAD·🇷🇺 Russia

Lanzado Jul 9, 1980 desde Plesetsk Cosmodrome

Loading…

Próximos Pases (próximas 24 horas)

TLE

ActualizadoSource: Space-Track

Época: Sep 14, 2026, 06:09 UTC

1 11878U 80058D   26257.25647203  .00000004  00000-0  13381-3 0  9990
2 11878  74.0193 173.4224 0016532 317.5427 211.0253 12.50617732108490

Sigue COSMOS 1195 en tiempo real con AllMySat

Download on the App Store